Regional Weather Roundup
Issued by NWS

Home | Current Version | Previous Version | Text Only | Print | Product List | Glossary Off
Versions: 1 2 3 4 5 6 7 8 9 10 11 12 13 14 15 16 17 18 19 20 21 22 23 24 25 26 27 28 29 30 31 32 33 34 35 36 37 38 39 40 41 42 43 44 45 46 47 48 49 50

000
ASUS44 KMEG 031410
RWRTN
TENNESSEE HOURLY STATE WEATHER ROUNDUP
NATIONAL WEATHER SERVICE MEMPHIS TN
900 AM CDT MON AUG 03 2015

TNZ002-004-019-021-049-052-054-088>092-031500-
WEST TENNESSEE

CITY           SKY/WX    TMP DP  RH WIND       PRES   REMARKS
MEMPHIS INTL   MOSUNNY   86  70  58 CALM      29.95R HX  90
NWS MEMPHIS      N/A     83 N/A N/A MISG        N/A
JACKSON        SUNNY     81  69  67 S5        29.95S
DYERSBURG        N/A    N/A N/A N/A MISG        N/A
PARIS          SUNNY     81  70  69 SW8       29.95S
LEXINGTON      SUNNY     75  68  78 S5        29.95S
$$

TNZ008-025-027-028-033-062-065-066-031500-
NORTH MIDDLE TENNESSEE

CITY           SKY/WX    TMP DP  RH WIND       PRES   REMARKS
NASHVILLE      MOSUNNY   80  45  28 S3        29.97R
CLARKSVILLE    SUNNY     79  69  71 SW7       29.94R
SMYRNA         SUNNY     77  66  68 CALM      29.97S
CROSSVILLE     SUNNY     78  60  53 W3        30.02S
$$

TNZ061-075-076-078-094-096-097-031500-
SOUTH MIDDLE TENNESSEE

CITY           SKY/WX    TMP DP  RH WIND       PRES   REMARKS
FAYETTEVILLE     N/A     77  63  61 E3        29.98S
TULLAHOMA      SUNNY     79  61  53 CALM      29.99S
WINCHESTER     SUNNY     75  61  60 E5        29.99S
COLUMBIA       SUNNY     81  68  65 CALM      29.96R
SHELBYVILLE    SUNNY     81  66  61 CALM      29.98S
$$

TNZ017-018-042-046-047-031500-
NORTHEAST TENNESSEE

CITY           SKY/WX    TMP DP  RH WIND       PRES   REMARKS
TRI CITIES     MOSUNNY   74  63  68 CALM      30.02R
ELIZABETHTON   MOSUNNY   75  61  60 CALM      30.03R
$$

TNZ012-013-036-069-073-074-031500-
CENTRAL EAST TENNESSEE

CITY           SKY/WX    TMP DP  RH WIND       PRES   REMARKS
KNOXVILLE      MOSUNNY   76  65  68 CALM      29.98
OAK RIDGE      SUNNY     77  65  66 CALM      29.99S
GATLINBURG     SUNNY     75  63  64 CALM      29.99S
MORRISTOWN     SUNNY     77  66  69 SW3       30.01S
$$

TNZ083-085-099-031500-
SOUTHEAST TENNESSEE

CITY           SKY/WX    TMP DP  RH WIND       PRES   REMARKS
CHATTANOOGA    MOSUNNY   79  66  64 CALM      29.98R
$$

SKY/WX REPORTED AS FAIR MEANS FEW OR NO CLOUDS BELOW
12 THOUSAND FEET.



USA.gov is the U.S. government's official web portal to all federal, state and local government web resources and services.